Theta_e
326 328 332 331 330 330 331 335 333 331 333 327 320 323 325 326 327 328 333 338 342 347 350 350 349 347 347 348 348 347 348 348 346 347 347 346 346 346 346 347 347 347
331 330 333 332 331 331 336 340 339 339 341 333 327 331 330 327 324 320 324 332 336 339 343 345 346 347 347 347 347 347 347 347 346 347 348 347 346 346 347 346 347 348
332 330 333 334 333 334 338 339 339 343 343 336 336 338 336 337 334 325 325 333 334 334 337 340 341 342 345 345 346 347 347 347 347 347 348 348 346 346 346 347 347 348
331 329 331 331 331 335 338 337 340 342 340 339 341 339 336 341 342 338 335 334 331 330 334 340 341 339 340 344 345 345 344 345 347 347 347 347 347 347 347 348 348 347
333 331 332 330 328 331 333 337 341 340 338 340 340 337 338 339 338 340 342 340 338 334 329 332 336 334 335 340 343 343 342 343 344 345 346 346 347 348 348 348 348 348
333 332 331 329 328 328 330 335 339 339 338 339 337 337 339 338 337 341 343 341 340 337 331 328 327 327 331 334 337 340 342 341 341 342 344 345 347 347 348 348 347 347
333 331 329 326 327 327 329 334 336 336 336 336 337 338 338 337 339 340 338 336 335 332 331 331 330 330 331 330 330 333 336 338 340 342 343 343 345 346 346 347 348 347
331 329 327 325 326 326 326 331 335 336 335 334 336 336 336 337 334 331 330 332 332 330 331 334 336 336 335 331 328 329 331 334 337 339 341 341 342 344 345 346 347 348
332 330 328 328 327 326 325 327 331 334 336 337 336 334 333 333 329 326 327 328 330 332 334 337 338 337 337 335 331 328 330 333 334 335 339 341 341 343 346 345 346 348
332 331 332 331 329 328 327 326 327 329 333 337 337 334 331 328 326 326 327 327 330 335 337 338 337 337 338 337 333 329 329 334 337 336 338 342 343 343 344 344 343 344
331 332 333 332 331 332 330 327 328 328 330 332 333 332 330 328 328 328 327 329 332 335 337 337 336 337 337 336 335 334 333 336 338 337 338 340 340 340 340 340 341 341
332 333 332 331 332 333 330 328 329 330 330 330 329 329 328 328 330 330 330 332 333 332 334 335 335 334 335 335 335 337 338 340 339 337 335 333 332 332 332 334 338 338
333 332 331 332 333 331 329 329 330 330 331 331 330 330 329 328 329 329 330 332 332 331 332 334 334 333 334 335 336 337 338 339 338 334 331 329 328 327 327 330 334 336
332 330 331 332 332 329 328 329 329 330 331 331 330 330 330 330 329 329 329 329 330 330 331 332 332 332 335 336 336 336 335 336 335 331 328 327 326 326 326 327 329 332
330 331 331 331 329 328 328 329 329 330 331 331 331 331 331 331 330 330 330 329 329 330 331 331 331 332 334 335 335 335 334 333 332 330 327 327 325 325 326 326 326 330
329 329 329 326 324 324 324 325 326 328 330 330 331 331 331 331 331 331 331 330 330 330 331 331 331 332 334 335 336 335 334 333 332 330 328 327 326 324 325 325 325 330
324 323 322 320 319 319 320 320 323 326 328 329 330 331 330 331 331 331 331 331 330 330 330 331 332 333 334 335 335 335 334 333 331 329 329 328 327 326 324 324 324 327
317 317 316 316 317 317 319 321 323 326 328 328 329 330 329 329 329 329 329 330 329 329 330 332 333 334 334 334 334 334 333 332 330 330 329 328 327 326 326 325 325 325
314 316 317 319 320 321 322 324 325 326 327 327 327 328 328 328 328 328 329 329 329 329 330 332 332 332 333 333 333 333 332 332 331 330 329 329 329 329 328 329 330 331
318 320 321 322 324 325 325 326 326 327 327 326 327 327 327 328 328 329 329 329 330 330 330 331 331 331 331 332 332 332 331 331 331 330 330 331 331 331 332 332 333 334
322 323 323 324 325 326 326 326 326 327 327 326 327 327 328 328 328 329 329 329 330 330 330 330 330 330 330 331 331 331 330 330 330 331 331 331 332 332 332 333 333 334
322 322 323 325 326 326 326 326 326 326 326 326 326 327 327 328 327 328 329 329 329 329 329 329 329 329 329 330 329 329 328 328 329 330 330 330 331 331 332 332 332 333
322 322 323 324 324 325 325 325 325 325 325 326 326 326 327 327 327 327 328 327 327 327 328 328 328 328 328 328 328 327 326 326 326 326 327 328 328 329 330 330 331 331
322 322 322 321 322 324 323 322 323 324 325 325 325 325 326 326 326 326 326 326 326 326 327 327 326 325 326 326 326 326 325 324 323 323 324 324 325 326 326 328 328 329
321 321 321 321 322 323 321 319 320 322 324 324 324 324 325 325 325 325 325 325 325 324 324 324 324 324 324 324 325 325 323 322 321 322 322 322 323 323 323 324 325 326
321 320 319 321 322 322 320 320 320 321 322 322 323 323 324 324 323 323 322 322 321 320 320 320 321 322 322 322 322 322 321 320 320 320 320 321 321 321 322 322 323 323
Wind_Speed
22 21 20 20 19 20 19 18 18 17 16 17 17 15 15 16 15 15 15 14 14 14 15 16 16 17 15 14 15 15 15 15 16 16 15 15 16 16 17 17 18 18
20 20 19 20 19 20 19 18 19 18 17 19 19 17 17 16 15 15 15 16 15 14 15 17 17 18 17 16 16 16 16 16 16 15 14 14 15 16 16 17 18 18
19 20 19 19 19 20 20 19 19 18 18 20 19 18 18 17 17 16 15 15 16 15 16 18 19 18 17 17 17 16 17 17 17 15 15 15 15 15 15 16 17 18
20 20 20 20 19 19 19 19 19 18 19 20 19 18 18 17 18 18 17 16 16 15 16 17 19 19 18 18 18 17 17 18 18 17 16 17 16 15 14 14 16 17
20 20 19 20 20 19 18 18 18 19 19 19 18 19 19 18 19 19 18 18 17 17 16 15 16 18 18 18 19 19 18 17 17 18 18 19 18 16 15 15 16 17
19 19 19 19 19 20 19 18 17 18 19 19 19 19 19 19 20 18 18 18 18 19 18 17 17 16 17 18 19 20 19 19 19 18 18 19 19 18 17 16 16 17
19 19 20 20 20 20 21 19 19 19 19 19 19 19 19 19 19 18 18 18 19 20 20 19 18 16 15 17 19 20 20 20 20 19 19 19 19 20 19 18 18 17
20 20 21 20 20 21 21 21 20 21 21 19 18 18 19 19 19 20 20 20 20 21 20 19 19 17 16 16 17 19 19 20 20 20 20 19 20 20 19 18 18 18
20 21 22 21 21 21 21 21 21 21 22 20 19 19 18 19 20 21 20 20 21 20 20 19 20 20 19 18 17 17 18 20 21 20 20 19 19 18 18 18 18 19
20 21 21 22 22 21 21 21 22 22 21 21 21 21 20 20 21 21 21 21 20 20 20 19 20 21 21 20 19 17 17 18 20 20 18 18 18 16 16 18 19 20
20 19 20 21 22 21 21 21 22 22 22 22 23 23 23 23 22 22 22 22 21 20 20 20 20 20 20 21 20 19 17 17 19 18 17 18 18 17 17 18 18 19
19 18 19 20 20 21 22 22 22 22 22 23 24 24 24 24 23 22 22 22 21 21 20 20 21 21 21 20 20 19 17 16 17 17 18 19 20 19 20 20 19 19
19 20 19 19 19 21 22 22 22 22 22 22 23 23 24 24 24 24 22 21 22 23 22 21 22 22 21 20 20 19 18 17 17 19 21 21 22 21 21 20 20 20
20 21 20 19 20 21 22 23 23 23 22 22 22 22 23 23 23 24 23 22 22 22 22 22 22 21 20 21 21 21 20 20 21 22 23 22 23 22 21 20 20 20
20 20 19 20 22 22 23 23 23 23 22 22 22 22 22 22 22 23 23 23 23 22 22 22 21 21 21 22 23 23 23 22 21 22 23 22 22 22 21 21 20 20
20 20 21 23 25 24 24 24 24 23 22 22 22 21 21 21 21 22 22 22 23 22 22 22 21 20 20 20 22 24 24 22 21 22 23 23 22 22 21 20 20 20
24 25 26 27 27 26 25 24 24 23 23 22 22 21 21 21 21 21 21 20 21 22 22 21 21 21 20 20 21 22 23 22 23 24 24 23 22 21 21 20 20 20
26 27 27 26 25 24 23 23 22 22 22 23 22 21 20 20 20 20 20 20 21 21 21 20 20 21 21 22 23 23 24 24 24 23 24 23 21 20 20 20 20 20
23 23 22 21 20 20 20 21 21 21 22 22 21 20 20 20 19 19 20 20 20 21 21 20 21 22 22 22 23 25 25 25 24 22 21 20 19 19 19 19 19 20
20 19 19 18 18 18 18 19 20 20 21 21 21 20 20 19 19 18 18 19 20 21 21 21 21 23 22 22 23 24 24 23 22 20 18 17 16 16 17 18 18 20
20 19 19 18 17 18 18 19 19 20 20 21 20 20 19 19 19 18 18 19 19 19 19 20 20 21 21 21 21 22 21 20 19 17 17 16 15 15 15 16 17 19
20 19 18 18 18 19 19 20 20 21 21 21 20 19 19 19 19 18 19 20 20 19 18 18 18 17 17 18 18 18 18 18 16 16 15 15 15 15 16 16 17 18
20 19 18 19 20 20 20 20 21 21 21 21 21 20 19 19 18 18 18 19 19 18 18 17 17 16 15 16 17 17 18 19 19 19 18 18 18 17 18 18 18 18
20 20 20 21 21 21 22 22 21 21 21 21 21 20 19 18 19 18 18 18 17 17 16 17 20 21 19 18 17 17 19 21 22 23 23 23 23 22 21 21 20 18
19 21 21 21 21 21 23 23 21 20 20 20 21 19 18 18 19 18 17 17 17 17 18 19 22 24 23 21 20 20 21 22 23 24 25 27 27 26 25 24 22 21
19 20 20 20 20 20 21 22 22 19 19 20 20 19 18 18 18 19 19 20 20 19 18 18 19 21 23 24 25 25 24 23 23 24 25 27 28 28 28 27 25 23
Wind_Direction
30 28 21 15 12 8 8 6 0 2 360 353 353 350 345 343 339 337 334 332 331 330 323 318 319 320 318 315 315 316 316 313 311 309 303 299 298 291 283 277 274 275
22 21 16 11 8 5 4 358 353 356 350 345 350 352 346 344 342 339 338 336 334 332 328 324 326 328 325 320 317 317 317 313 310 306 303 303 301 293 286 281 278 278
17 14 12 7 2 0 357 351 352 352 341 341 348 347 343 342 340 342 343 339 335 337 338 334 332 332 331 326 321 319 318 314 312 307 302 303 302 296 291 286 280 278
11 9 8 2 359 356 350 349 351 344 336 340 342 338 340 340 337 340 341 339 338 338 341 339 333 331 331 330 326 323 320 314 312 309 303 303 302 298 297 294 287 282
2 4 1 355 354 351 348 350 346 338 336 338 336 334 338 336 335 339 340 340 338 334 335 337 331 329 330 330 327 324 324 323 319 312 305 305 304 300 299 297 292 289
354 359 356 351 352 348 347 347 340 335 335 334 333 334 332 331 336 340 336 332 328 327 333 334 330 329 329 327 325 325 326 328 328 322 313 309 306 302 298 293 289 288
348 353 352 352 353 348 346 344 336 334 333 331 332 331 328 330 332 330 326 325 325 327 333 335 332 331 328 325 324 325 325 324 324 323 320 316 312 308 301 293 290 289
345 348 347 349 351 348 345 342 336 333 332 331 329 326 326 329 326 323 323 325 328 330 334 335 333 329 326 324 324 323 322 321 320 319 319 319 317 313 306 297 294 295
342 341 342 345 345 343 342 339 334 332 331 332 329 324 324 326 326 326 325 324 328 332 333 333 330 328 325 323 322 322 321 320 320 318 317 317 315 313 308 305 303 300
338 338 338 337 336 336 336 334 331 330 329 329 326 325 325 326 327 326 324 324 327 331 332 329 327 326 324 322 322 322 320 318 318 317 314 314 317 316 314 315 314 309
335 335 332 329 329 329 329 329 328 326 325 324 323 324 326 327 327 326 327 327 327 326 326 324 322 319 318 320 323 325 322 315 312 313 313 316 322 324 321 321 321 319
332 329 326 325 325 324 325 326 326 323 321 321 321 322 324 325 325 326 327 327 325 323 322 321 320 320 323 325 325 323 319 312 309 310 312 317 321 322 322 321 320 320
328 327 327 326 324 324 325 324 323 321 319 319 320 321 322 322 322 323 324 325 325 323 324 323 322 326 329 325 319 317 314 311 312 312 312 315 317 318 318 318 316 316
326 328 329 327 324 323 323 321 320 320 319 318 319 320 320 320 320 320 322 324 325 324 323 322 323 328 326 318 315 316 314 311 311 311 312 313 314 314 314 313 312 313
327 328 326 323 323 322 320 320 320 318 317 318 318 318 318 318 318 319 321 322 323 324 323 323 325 326 322 318 318 317 315 315 314 313 314 314 312 313 313 311 311 311
326 324 322 321 321 320 319 319 319 317 317 317 316 315 315 315 316 319 321 321 322 322 322 324 325 323 319 319 319 317 316 317 317 317 318 318 316 316 314 312 311 310
322 320 318 317 317 316 316 317 317 317 317 318 317 316 315 316 317 319 320 321 322 322 323 325 325 320 317 315 312 313 312 312 314 316 317 319 320 318 316 313 309 306
318 316 315 315 315 316 318 319 319 318 319 322 322 321 320 319 319 320 320 320 322 321 321 324 323 318 315 312 309 309 309 310 313 315 316 319 321 320 317 315 310 306
321 321 324 325 325 325 323 322 323 323 323 325 324 323 323 322 321 321 320 320 321 320 318 319 320 317 316 314 310 309 311 313 317 320 319 320 322 321 318 316 312 308
334 336 338 340 338 334 330 328 328 328 327 327 327 325 325 324 324 322 321 322 321 319 319 320 320 319 317 315 313 311 313 316 319 322 320 318 316 316 315 313 309 306
343 342 343 344 341 337 335 334 334 333 333 332 331 329 328 327 326 324 323 324 323 323 324 321 320 322 323 322 319 317 319 321 321 321 319 315 311 308 307 306 304 305
346 343 342 342 340 339 339 338 337 336 336 336 335 334 331 330 329 327 326 327 329 335 338 331 324 325 328 331 330 328 328 328 327 325 321 318 315 312 309 306 305 308
348 344 342 343 342 341 340 338 338 337 337 338 339 339 338 336 335 333 333 335 337 343 350 348 341 337 336 337 337 336 336 335 332 330 324 320 318 315 313 309 308 312
347 343 343 347 348 345 341 340 340 340 339 339 340 343 343 341 342 343 343 344 345 348 351 350 347 344 340 337 336 335 335 333 330 328 324 321 318 315 312 309 306 310
345 343 344 350 350 345 344 346 345 344 341 339 342 346 346 344 345 347 347 346 346 348 346 341 340 339 336 331 328 328 329 328 326 323 320 318 317 316 314 310 306 307
345 344 345 349 348 344 345 348 348 347 343 341 345 349 349 346 344 343 341 340 340 341 342 337 334 335 332 325 318 318 323 324 322 320 317 315 315 315 314 312 309 308